Location: Anciles
(42.5833°N, 0.5167°E)
Time: 19:48:35
(UTC+00:00)

Cosmos 1908 Rocket - Pass Details

Date: 10 December 2019
Orbit: 605 x 633 km, 82.5° (Epoch: 21 January)

Event Time Altitude Azimuth Distance (km) Brightness Sun altitude
Rises 17:22:19 0° 357° (N) 2,907 6.8 -10.4°
Reaches altitude 10° 17:24:39 10° 4° (N) 1,991 5.9 -10.8°
Maximum altitude 17:28:53 46° 78° (ENE) 835 3.8 -11.5°
Drops below altitude 10° 17:33:04 10° 152° (SSE) 1,960 6.0 -12.2°
Sets 17:35:20 0° 158° (SSE) 2,856 7.0 -12.6°
